TimeEDT,TemperatureF,Dew PointF,Humidity,Sea Level PressureIn,VisibilityMPH,Wind Direction,Wind SpeedMPH,Gust SpeedMPH,PrecipitationIn,Events,Conditions,WindDirDegrees,DateUTC
12:15 AM,71.6,71.6,100,30.05,7.0,SW,15.0,21.9,0.01,Rain-Thunderstorm,Rain,230,2013-07-29 04:15:00
12:35 AM,69.8,68.0,94,30.02,10.0,West,4.6,-,0.04,Rain,Light Rain,260,2013-07-29 04:35:00
12:55 AM,69.8,68.0,94,30.02,10.0,Calm,Calm,-,0.04,Rain-Thunderstorm,Light Thunderstorms and Rain,0,2013-07-29 04:55:00
1:15 AM,69.8,68.0,94,30.04,10.0,Calm,Calm,-,N/A,,Mostly Cloudy,0,2013-07-29 05:15:00
1:35 AM,68.0,68.0,100,30.05,7.0,Calm,Calm,-,N/A,,Scattered Clouds,0,2013-07-29 05:35:00
2:14 AM,68.0,68.0,100,30.03,3.0,Calm,Calm,-,N/A,,Clear,0,2013-07-29 06:14:00
2:15 AM,68.0,68.0,100,30.03,3.0,Calm,Calm,-,N/A,,Clear,0,2013-07-29 06:15:00
2:35 AM,68.0,68.0,100,30.04,4.0,Calm,Calm,-,N/A,,Scattered Clouds,0,2013-07-29 06:35:00
2:55 AM,68.0,68.0,100,30.05,5.0,WSW,4.6,-,N/A,,Mostly Cloudy,250,2013-07-29 06:55:00
3:15 AM,68.0,68.0,100,30.04,5.0,WSW,3.5,-,N/A,Rain,Light Rain,250,2013-07-29 07:15:00
3:55 AM,68.0,68.0,100,30.03,4.0,Calm,Calm,-,N/A,,Scattered Clouds,0,2013-07-29 07:55:00
4:15 AM,68.0,68.0,100,30.04,7.0,Calm,Calm,-,N/A,,Clear,0,2013-07-29 08:15:00
5:15 AM,66.2,66.2,100,30.06,4.0,Calm,Calm,-,N/A,,Scattered Clouds,0,2013-07-29 09:15:00
5:54 AM,66.2,66.2,100,30.07,1.5,Calm,Calm,-,N/A,,Mist,0,2013-07-29 09:54:00
6:15 AM,64.4,64.4,100,30.07,2.0,Calm,Calm,-,0.01,,Clear,0,2013-07-29 10:15:00
6:35 AM,64.4,64.4,100,30.09,0.8,Calm,Calm,-,0.01,,Mist,0,2013-07-29 10:35:00
6:55 AM,64.4,64.4,100,30.10,2.5,Calm,Calm,-,0.01,,Clear,0,2013-07-29 10:55:00
7:15 AM,64.4,64.4,100,30.10,4.0,Calm,Calm,-,N/A,,Clear,0,2013-07-29 11:15:00
7:35 AM,68.0,68.0,100,30.10,5.0,Calm,Calm,-,N/A,,Clear,0,2013-07-29 11:35:00
7:55 AM,68.0,68.0,100,30.11,7.0,Calm,Calm,-,N/A,,Clear,0,2013-07-29 11:55:00
8:15 AM,69.8,69.8,100,30.12,10.0,NNW,5.8,-,N/A,,Clear,340,2013-07-29 12:15:00
8:35 AM,69.8,68.0,94,30.12,10.0,NNW,4.6,-,N/A,,Clear,330,2013-07-29 12:35:00
8:55 AM,71.6,66.2,83,30.13,10.0,NNW,4.6,-,N/A,,Clear,340,2013-07-29 12:55:00
9:15 AM,71.6,64.4,78,30.14,10.0,NNW,5.8,-,N/A,,Clear,330,2013-07-29 13:15:00
9:35 AM,73.4,62.6,69,30.14,10.0,North,6.9,-,N/A,,Clear,360,2013-07-29 13:35:00
9:55 AM,73.4,62.6,69,30.14,10.0,North,8.1,-,N/A,,Clear,350,2013-07-29 13:55:00
10:15 AM,73.4,62.6,69,30.15,10.0,NNE,6.9,-,N/A,,Clear,20,2013-07-29 14:15:00
10:35 AM,75.2,62.6,65,30.15,10.0,North,8.1,-,N/A,,Clear,10,2013-07-29 14:35:00
10:55 AM,77.0,64.4,65,30.15,10.0,North,4.6,-,N/A,,Clear,10,2013-07-29 14:55:00
11:15 AM,77.0,64.4,65,30.16,10.0,NE,6.9,-,N/A,,Clear,40,2013-07-29 15:15:00
11:35 AM,77.0,64.4,65,30.15,10.0,North,3.5,-,N/A,,Clear,350,2013-07-29 15:35:00
11:55 AM,77.0,62.6,61,30.15,10.0,Calm,Calm,-,N/A,,Scattered Clouds,0,2013-07-29 15:55:00
12:15 PM,77.0,62.6,61,30.15,10.0,North,4.6,-,N/A,,Scattered Clouds,360,2013-07-29 16:15:00
12:35 PM,77.0,60.8,57,30.15,10.0,NNW,3.5,-,N/A,,Scattered Clouds,330,2013-07-29 16:35:00
12:55 PM,78.8,62.6,57,30.15,10.0,WNW,3.5,-,N/A,,Scattered Clouds,300,2013-07-29 16:55:00
1:15 PM,78.8,60.8,54,30.15,10.0,Calm,Calm,-,N/A,,Scattered Clouds,0,2013-07-29 17:15:00
1:35 PM,78.8,60.8,54,30.15,10.0,Calm,Calm,-,N/A,,Scattered Clouds,0,2013-07-29 17:35:00
1:55 PM,80.6,60.8,51,30.14,10.0,NW,3.5,-,N/A,,Clear,320,2013-07-29 17:55:00
2:15 PM,80.6,60.8,51,30.14,10.0,WNW,3.5,-,N/A,,Clear,290,2013-07-29 18:15:00
2:35 PM,80.6,60.8,51,30.13,10.0,West,4.6,-,N/A,,Clear,260,2013-07-29 18:35:00
2:55 PM,80.6,62.6,54,30.12,10.0,Calm,Calm,-,N/A,,Clear,0,2013-07-29 18:55:00
3:15 PM,80.6,60.8,51,30.12,10.0,WNW,3.5,-,N/A,,Clear,300,2013-07-29 19:15:00
3:35 PM,82.4,60.8,48,30.10,10.0,Calm,Calm,-,N/A,,Clear,0,2013-07-29 19:35:00
3:55 PM,82.4,60.8,48,30.10,10.0,Calm,Calm,-,N/A,,Clear,0,2013-07-29 19:55:00
4:15 PM,80.6,60.8,51,30.12,10.0,NW,4.6,-,N/A,,Clear,320,2013-07-29 20:15:00
4:35 PM,82.4,59.0,45,30.12,10.0,WNW,3.5,-,N/A,,Clear,300,2013-07-29 20:35:00
4:55 PM,80.6,60.8,51,30.13,10.0,Calm,Calm,-,N/A,,Clear,0,2013-07-29 20:55:00
5:15 PM,80.6,59.0,48,30.14,10.0,Calm,Calm,-,N/A,,Clear,0,2013-07-29 21:15:00
5:35 PM,80.6,55.4,42,30.14,10.0,WSW,4.6,-,N/A,,Clear,250,2013-07-29 21:35:00
5:55 PM,80.6,60.8,51,30.14,10.0,Calm,Calm,-,N/A,,Clear,0,2013-07-29 21:55:00
6:15 PM,80.6,59.0,48,30.14,10.0,West,3.5,-,N/A,,Clear,280,2013-07-29 22:15:00
6:35 PM,80.6,60.8,51,30.14,10.0,Calm,Calm,-,N/A,,Clear,0,2013-07-29 22:35:00
6:55 PM,78.8,60.8,54,30.14,10.0,Calm,Calm,-,N/A,,Clear,0,2013-07-29 22:55:00
7:15 PM,78.8,60.8,54,30.15,10.0,Calm,Calm,-,N/A,,Clear,0,2013-07-29 23:15:00
7:35 PM,77.0,62.6,61,30.15,10.0,Calm,Calm,-,N/A,,Clear,0,2013-07-29 23:35:00
7:55 PM,73.4,64.4,73,30.16,10.0,Calm,Calm,-,N/A,,Clear,0,2013-07-29 23:55:00
8:15 PM,71.6,64.4,78,30.16,10.0,Calm,Calm,-,N/A,,Clear,0,2013-07-30 00:15:00
8:35 PM,69.8,64.4,83,30.17,10.0,Calm,Calm,-,N/A,,Clear,0,2013-07-30 00:35:00
8:55 PM,68.0,64.4,88,30.18,10.0,Calm,Calm,-,N/A,,Clear,0,2013-07-30 00:55:00
9:15 PM,66.2,64.4,94,30.19,10.0,Calm,Calm,-,N/A,,Clear,0,2013-07-30 01:15:00
9:35 PM,64.4,64.4,100,30.20,10.0,Calm,Calm,-,N/A,,Clear,0,2013-07-30 01:35:00
9:55 PM,64.4,64.4,100,30.20,10.0,Calm,Calm,-,N/A,,Clear,0,2013-07-30 01:55:00
10:15 PM,64.4,64.4,100,30.20,10.0,Calm,Calm,-,N/A,,Clear,0,2013-07-30 02:15:00
10:35 PM,62.6,62.6,100,30.20,10.0,Calm,Calm,-,N/A,,Clear,0,2013-07-30 02:35:00
10:55 PM,62.6,62.6,100,30.20,10.0,Calm,Calm,-,N/A,,Clear,0,2013-07-30 02:55:00
11:15 PM,62.6,62.6,100,30.19,10.0,Calm,Calm,-,N/A,,Clear,0,2013-07-30 03:15:00
11:35 PM,62.6,62.6,100,30.19,10.0,Calm,Calm,-,N/A,,Clear,0,2013-07-30 03:35:00
11:55 PM,62.6,62.6,100,30.20,10.0,Calm,Calm,-,N/A,,Clear,0,2013-07-30 03:55:00